Torna al catalogo

STARLINK-36438

AttivoComunicazioniVLEO
NORAD 67625·PAYLOAD·🇺🇸 United States

Lanciato Jan 30, 2026 da Cape Canaveral Space Force Station

Loading…

Prossimi Passaggi (prossime 24 ore)

TLE

AggiornatoSource: CelesTrak SupGP

Epoca: Sep 15, 2026, 03:59 UTC

1 67625C 26020J   26258.16645833  .00054989  00000+0  19917-2 0  2586
2 67625  42.9998 149.7683 0001564 276.0395 350.9639 15.27550441    15

Traccia STARLINK-36438 in tempo reale con AllMySat

Download on the App Store